This is the latest recevied weather packets stored in our database for station/object KM4CBK. If no packets are shown the sender has not sent any weather packets the latest 10 day(s).
| Time | Temp. | Humidity | Pressure | Rain* | Wind** | Luminosity | Snow |
|---|---|---|---|---|---|---|---|
| 1778116630 | 20.56° C | 99% | 1010.7 hPa | 0.51 mm | - | 0 W/m² | - |
| 1778116326 | 20.56° C | 99% | 1010.8 hPa | 0.51 mm | - | 0 W/m² | - |
| 1778116025 | 20° C | 99% | 1010.5 hPa | 1.27 mm | - | 0 W/m² | - |
| 1778115721 | 20° C | 99% | 1010.4 hPa | 0.51 mm | - | 0 W/m² | - |
| 1778115419 | 20° C | 99% | 1010.6 hPa | 0 mm | - | 0 W/m² | - |
| 1778115115 | 20.56° C | 99% | 1010.5 hPa | 0 mm | - | 0 W/m² | - |
| 1778114812 | 20° C | 99% | 1010.8 hPa | 0 mm | - | 0 W/m² | - |
| 1778114510 | 20.56° C | 99% | 1011.3 hPa | 7.11 mm | - | 0 W/m² | - |
| 1778114206 | 20.56° C | 99% | 1011.9 hPa | 9.65 mm | - | 0 W/m² | - |
| 1778113906 | 20.56° C | 99% | 1011.9 hPa | 4.83 mm | - | 0 W/m² | - |
| 1778113603 | 20.56° C | 99% | 1010.5 hPa | 0.51 mm | - | 0 W/m² | - |
| 1778113299 | 20.56° C | 99% | 1010.5 hPa | 1.27 mm | - | 0 W/m² | - |
| 1778112995 | 20.56° C | 99% | 1010.1 hPa | 6.6 mm | - | 0 W/m² | - |
| 1778112693 | 20.56° C | 99% | 1010.1 hPa | 9.65 mm | - | 0 W/m² | - |
| 1778112389 | 20.56° C | 99% | 1009.6 hPa | 9.65 mm | - | 0 W/m² | - |
| 1778112085 | 20.56° C | 99% | 1010.4 hPa | 4.32 mm | - | 0 W/m² | - |
| 1778111782 | 20.56° C | 99% | 1009.9 hPa | 3.05 mm | - | 0 W/m² | - |
| 1778111482 | 20.56° C | 99% | 1010.7 hPa | 11.43 mm | - | 0 W/m² | - |
| 1778111180 | 20.56° C | 99% | 1010.7 hPa | 17.53 mm | - | 0 W/m² | - |
| 1778110877 | 20.56° C | 99% | 1010.7 hPa | 8.38 mm | - | 0 W/m² | - |
| 1778110574 | 20.56° C | 99% | 1011.2 hPa | 0.51 mm | - | 0 W/m² | - |
| 1778110271 | 20.56° C | 99% | 1010.9 hPa | 0 mm | - | 0 W/m² | - |
| 1778109967 | 20.56° C | 99% | 1010.9 hPa | 0.51 mm | - | 0 W/m² | - |
| 1778109662 | 21.11° C | 99% | 1011.1 hPa | 1.78 mm | - | 0 W/m² | - |
| 1778109360 | 21.11° C | 99% | 1010.9 hPa | 3.05 mm | - | 0 W/m² | - |
* Rain latest hour (hover to see other rain measurements)
** Current wind speed in m/s (hover to see current wind gust speed)